QPF
0.01 0.00 0.00 0.00 0.00 0.00 0.00 0.00 0.00 0.00 0.00 0.00 0.00 0.00 0.00 0.00 0.00 0.00 0.00 0.00 0.00 0.00 0.00 0.00 0.00 0.00 0.00 0.00 0.00 0.00 0.00 0.00 0.00 0.00 0.02 0.03 0.02 0.02 0.02 0.01 0.01 0.01 0.01
0.01 0.00 0.00 0.00 0.00 0.00 0.00 0.00 0.00 0.00 0.00 0.00 0.00 0.00 0.00 0.00 0.00 0.00 0.00 0.00 0.00 0.00 0.00 0.00 0.00 0.00 0.00 0.00 0.00 0.00 0.00 0.00 0.00 0.00 0.01 0.01 0.02 0.02 0.01 0.02 0.02 0.02 0.01
0.01 0.00 0.00 0.00 0.00 0.00 0.00 0.00 0.00 0.00 0.00 0.00 0.01 0.00 0.00 0.00 0.00 0.00 0.00 0.00 0.00 0.00 0.00 0.00 0.00 0.00 0.00 0.00 0.00 0.00 0.00 0.00 0.00 0.00 0.00 0.01 0.01 0.01 0.02 0.02 0.02 0.01 0.01
0.01 0.01 0.00 0.00 0.00 0.00 0.00 0.00 0.00 0.00 0.00 0.00 0.00 0.00 0.00 0.00 0.00 0.00 0.00 0.00 0.00 0.00 0.00 0.00 0.00 0.00 0.00 0.00 0.00 0.00 0.00 0.00 0.00 0.00 0.00 0.01 0.01 0.01 0.01 0.01 0.01 0.02 0.02
0.01 0.01 0.01 0.00 0.00 0.00 0.00 0.00 0.00 0.00 0.00 0.00 0.00 0.00 0.00 0.00 0.00 0.00 0.00 0.00 0.00 0.00 0.00 0.00 0.00 0.00 0.00 0.00 0.00 0.00 0.00 0.00 0.00 0.00 0.00 0.00 0.00 0.00 0.01 0.01 0.01 0.03 0.02
0.01 0.00 0.00 0.00 0.00 0.00 0.00 0.00 0.00 0.00 0.00 0.00 0.00 0.00 0.00 0.00 0.00 0.00 0.00 0.00 0.00 0.00 0.00 0.00 0.00 0.00 0.00 0.00 0.00 0.00 0.00 0.00 0.00 0.00 0.00 0.00 0.01 0.01 0.01 0.01 0.01 0.03 0.02
0.00 0.00 0.00 0.00 0.00 0.00 0.00 0.00 0.00 0.00 0.00 0.00 0.00 0.00 0.00 0.00 0.00 0.00 0.00 0.00 0.00 0.00 0.00 0.00 0.00 0.00 0.00 0.00 0.00 0.00 0.00 0.00 0.00 0.00 0.00 0.00 0.00 0.00 0.00 0.01 0.01 0.02 0.03
0.01 0.00 0.00 0.00 0.00 0.00 0.00 0.00 0.00 0.00 0.00 0.00 0.00 0.00 0.00 0.00 0.00 0.00 0.00 0.00 0.00 0.00 0.00 0.00 0.00 0.00 0.00 0.00 0.00 0.00 0.00 0.00 0.00 0.00 0.00 0.00 0.00 0.00 0.00 0.01 0.01 0.01 0.02
0.01 0.01 0.00 0.00 0.00 0.00 0.00 0.00 0.00 0.00 0.00 0.00 0.00 0.00 0.00 0.00 0.00 0.00 0.00 0.00 0.00 0.00 0.00 0.00 0.00 0.00 0.00 0.00 0.00 0.00 0.00 0.00 0.00 0.00 0.00 0.00 0.00 0.00 0.00 0.01 0.01 0.01 0.01
0.01 0.01 0.00 0.00 0.00 0.00 0.00 0.00 0.00 0.00 0.00 0.00 0.00 0.00 0.00 0.00 0.00 0.00 0.00 0.00 0.00 0.00 0.00 0.00 0.00 0.00 0.00 0.00 0.00 0.00 0.00 0.00 0.00 0.00 0.00 0.00 0.00 0.00 0.01 0.01 0.01 0.01 0.01
0.01 0.01 0.01 0.00 0.00 0.00 0.00 0.00 0.00 0.00 0.00 0.00 0.00 0.00 0.00 0.01 0.00 0.00 0.00 0.00 0.00 0.00 0.00 0.00 0.00 0.00 0.00 0.00 0.00 0.00 0.00 0.00 0.00 0.00 0.00 0.01 0.01 0.00 0.00 0.01 0.01 0.01 0.01
0.01 0.01 0.01 0.01 0.00 0.00 0.00 0.00 0.00 0.00 0.00 0.00 0.00 0.01 0.01 0.01 0.00 0.00 0.00 0.00 0.00 0.00 0.00 0.00 0.00 0.00 0.00 0.00 0.00 0.00 0.00 0.00 0.00 0.00 0.00 0.01 0.01 0.00 0.00 0.00 0.00 0.01 0.01
0.00 0.01 0.01 0.01 0.01 0.01 0.00 0.00 0.00 0.00 0.00 0.00 0.01 0.01 0.01 0.01 0.00 0.00 0.00 0.00 0.00 0.00 0.00 0.00 0.00 0.00 0.00 0.00 0.00 0.00 0.00 0.00 0.00 0.00 0.00 0.01 0.02 0.01 0.00 0.00 0.00 0.01 0.01
0.00 0.00 0.00 0.00 0.01 0.01 0.00 0.00 0.00 0.00 0.00 0.00 0.00 0.00 0.00 0.00 0.00 0.00 0.00 0.00 0.00 0.00 0.00 0.00 0.00 0.00 0.00 0.00 0.00 0.00 0.00 0.00 0.00 0.00 0.00 0.01 0.02 0.03 0.02 0.01 0.01 0.01 0.01
0.00 0.00 0.00 0.00 0.00 0.00 0.00 0.00 0.00 0.00 0.00 0.00 0.00 0.00 0.00 0.00 0.00 0.00 0.00 0.00 0.00 0.00 0.00 0.00 0.00 0.00 0.00 0.00 0.00 0.00 0.00 0.00 0.00 0.00 0.00 0.00 0.00 0.01 0.02 0.02 0.02 0.02 0.03
0.00 0.00 0.00 0.00 0.00 0.00 0.00 0.00 0.00 0.00 0.00 0.00 0.00 0.00 0.00 0.00 0.00 0.00 0.00 0.00 0.00 0.00 0.00 0.00 0.00 0.00 0.00 0.00 0.00 0.00 0.00 0.00 0.00 0.00 0.00 0.00 0.00 0.00 0.00 0.01 0.01 0.01 0.01
0.00 0.00 0.00 0.00 0.00 0.00 0.00 0.00 0.00 0.00 0.01 0.01 0.00 0.00 0.00 0.00 0.00 0.00 0.00 0.00 0.01 0.01 0.00 0.00 0.00 0.00 0.00 0.00 0.00 0.00 0.00 0.00 0.00 0.00 0.00 0.00 0.00 0.00 0.00 0.00 0.00 0.00 0.01
0.00 0.00 0.00 0.00 0.00 0.00 0.00 0.00 0.00 0.00 0.01 0.01 0.00 0.00 0.00 0.00 0.00 0.00 0.00 0.01 0.01 0.01 0.00 0.00 0.00 0.00 0.00 0.00 0.00 0.00 0.00 0.00 0.00 0.00 0.00 0.00 0.00 0.00 0.00 0.00 0.00 0.00 0.00
0.00 0.00 0.00 0.00 0.00 0.00 0.00 0.00 0.00 0.01 0.01 0.01 0.00 0.00 0.00 0.00 0.00 0.00 0.00 0.00 0.00 0.00 0.00 0.00 0.00 0.00 0.00 0.00 0.00 0.00 0.00 0.00 0.00 0.00 0.00 0.00 0.00 0.00 0.00 0.00 0.00 0.01 0.00
0.01 0.00 0.00 0.00 0.00 0.00 0.00 0.00 0.01 0.01 0.01 0.00 0.00 0.01 0.00 0.00 0.00 0.00 0.00 0.00 0.01 0.00 0.00 0.00 0.00 0.00 0.00 0.00 0.00 0.00 0.00 0.00 0.00 0.00 0.00 0.00 0.00 0.00 0.00 0.00 0.00 0.00 0.00
0.01 0.01 0.00 0.00 0.00 0.00 0.00 0.00 0.00 0.00 0.00 0.00 0.00 0.00 0.00 0.00 0.00 0.00 0.00 0.00 0.00 0.00 0.00 0.00 0.00 0.00 0.00 0.00 0.00 0.00 0.00 0.00 0.00 0.00 0.00 0.00 0.00 0.00 0.00 0.00 0.00 0.00 0.00
0.01 0.00 0.00 0.00 0.01 0.00 0.00 0.00 0.00 0.00 0.00 0.01 0.00 0.00 0.00 0.00 0.00 0.00 0.00 0.00 0.00 0.00 0.00 0.00 0.00 0.00 0.00 0.00 0.00 0.00 0.00 0.00 0.00 0.00 0.00 0.00 0.00 0.00 0.00 0.00 0.00 0.00 0.00
0.00 0.00 0.00 0.00 0.01 0.01 0.00 0.00 0.00 0.00 0.00 0.00 0.00 0.00 0.00 0.00 0.00 0.00 0.00 0.00 0.00 0.00 0.00 0.00 0.00 0.00 0.00 0.00 0.00 0.00 0.00 0.00 0.00 0.00 0.00 0.00 0.00 0.00 0.00 0.00 0.00 0.00 0.00
0.00 0.00 0.00 0.00 0.00 0.00 0.00 0.00 0.00 0.00 0.00 0.00 0.00 0.00 0.00 0.00 0.00 0.00 0.00 0.00 0.00 0.00 0.00 0.00 0.00 0.00 0.00 0.00 0.00 0.00 0.00 0.00 0.00 0.00 0.00 0.00 0.00 0.00 0.00 0.00 0.00 0.00 0.00
0.01 0.01 0.01 0.00 0.00 0.00 0.00 0.00 0.00 0.00 0.00 0.00 0.00 0.00 0.00 0.00 0.00 0.00 0.00 0.00 0.00 0.00 0.00 0.00 0.00 0.00 0.00 0.00 0.00 0.00 0.00 0.00 0.00 0.00 0.00 0.00 0.00 0.00 0.00 0.00 0.00 0.00 0.00
0.01 0.01 0.01 0.01 0.00 0.00 0.00 0.00 0.00 0.00 0.00 0.00 0.00 0.00 0.00 0.00 0.00 0.00 0.00 0.00 0.00 0.00 0.00 0.00 0.00 0.00 0.00 0.00 0.00 0.00 0.00 0.00 0.00 0.00 0.00 0.00 0.00 0.00 0.00 0.01 0.00 0.00 0.00
MSLP
1017.54 1017.56 1017.58 1017.57 1017.56 1017.54 1017.55 1017.61 1017.74 1017.95 1018.24 1018.57 1018.90 1019.20 1019.42 1019.54 1019.55 1019.48 1019.34 1019.18 1019.02 1018.89 1018.79 1018.73 1018.68 1018.63 1018.56 1018.49 1018.41 1018.33 1018.29 1018.28 1018.32 1018.39 1018.46 1018.51 1018.51 1018.42 1018.25 1018.01 1017.72 1017.41 1017.11
1017.52 1017.58 1017.62 1017.62 1017.57 1017.50 1017.44 1017.45 1017.55 1017.77 1018.10 1018.50 1018.92 1019.31 1019.62 1019.81 1019.87 1019.82 1019.69 1019.53 1019.37 1019.24 1019.16 1019.11 1019.09 1019.07 1019.03 1018.96 1018.87 1018.78 1018.71 1018.68 1018.71 1018.78 1018.87 1018.96 1019.01 1018.99 1018.89 1018.71 1018.47 1018.19 1017.89
1017.29 1017.43 1017.52 1017.54 1017.49 1017.39 1017.29 1017.25 1017.33 1017.55 1017.90 1018.36 1018.86 1019.34 1019.74 1020.02 1020.15 1020.15 1020.06 1019.92 1019.77 1019.66 1019.60 1019.58 1019.57 1019.57 1019.53 1019.46 1019.36 1019.24 1019.15 1019.09 1019.11 1019.18 1019.30 1019.44 1019.56 1019.61 1019.59 1019.48 1019.29 1019.04 1018.75
1016.88 1017.10 1017.27 1017.35 1017.33 1017.23 1017.12 1017.05 1017.11 1017.32 1017.69 1018.19 1018.75 1019.31 1019.80 1020.16 1020.37 1020.44 1020.41 1020.32 1020.21 1020.13 1020.09 1020.09 1020.10 1020.10 1020.07 1019.99 1019.87 1019.74 1019.62 1019.56 1019.56 1019.65 1019.80 1019.98 1020.16 1020.29 1020.34 1020.29 1020.14 1019.92 1019.63
1016.33 1016.65 1016.92 1017.09 1017.13 1017.07 1016.97 1016.90 1016.94 1017.14 1017.51 1018.02 1018.61 1019.23 1019.78 1020.23 1020.52 1020.67 1020.71 1020.68 1020.63 1020.59 1020.58 1020.60 1020.63 1020.64 1020.61 1020.54 1020.41 1020.27 1020.15 1020.08 1020.09 1020.18 1020.36 1020.58 1020.81 1020.99 1021.10 1021.10 1020.99 1020.78 1020.50
1015.71 1016.15 1016.54 1016.81 1016.94 1016.95 1016.88 1016.82 1016.85 1017.03 1017.37 1017.87 1018.48 1019.11 1019.72 1020.22 1020.58 1020.81 1020.93 1020.97 1020.97 1020.98 1021.01 1021.05 1021.11 1021.13 1021.12 1021.06 1020.95 1020.82 1020.70 1020.64 1020.66 1020.77 1020.96 1021.20 1021.46 1021.68 1021.82 1021.86 1021.78 1021.58 1021.29
1015.11 1015.65 1016.16 1016.55 1016.79 1016.87 1016.85 1016.81 1016.84 1016.99 1017.30 1017.77 1018.35 1018.98 1019.59 1020.13 1020.55 1020.84 1021.02 1021.12 1021.19 1021.24 1021.31 1021.39 1021.47 1021.53 1021.55 1021.51 1021.44 1021.34 1021.25 1021.21 1021.24 1021.36 1021.55 1021.80 1022.07 1022.30 1022.46 1022.51 1022.45 1022.27 1022.00
1014.58 1015.21 1015.82 1016.32 1016.66 1016.82 1016.87 1016.86 1016.88 1017.01 1017.27 1017.69 1018.22 1018.82 1019.42 1019.97 1020.41 1020.75 1020.98 1021.14 1021.25 1021.36 1021.46 1021.58 1021.69 1021.79 1021.85 1021.86 1021.84 1021.79 1021.74 1021.73 1021.78 1021.90 1022.08 1022.32 1022.57 1022.79 1022.95 1023.02 1022.98 1022.84 1022.59
1014.13 1014.82 1015.51 1016.10 1016.53 1016.77 1016.88 1016.91 1016.94 1017.04 1017.27 1017.63 1018.11 1018.66 1019.22 1019.75 1020.20 1020.56 1020.83 1021.02 1021.18 1021.32 1021.46 1021.61 1021.77 1021.91 1022.02 1022.09 1022.13 1022.14 1022.14 1022.16 1022.22 1022.34 1022.51 1022.71 1022.93 1023.13 1023.29 1023.37 1023.37 1023.27 1023.09
1013.76 1014.48 1015.22 1015.87 1016.36 1016.67 1016.84 1016.91 1016.96 1017.06 1017.26 1017.58 1018.00 1018.50 1019.02 1019.52 1019.96 1020.32 1020.60 1020.82 1021.00 1021.17 1021.34 1021.53 1021.72 1021.90 1022.07 1022.20 1022.30 1022.37 1022.43 1022.48 1022.56 1022.66 1022.81 1022.97 1023.16 1023.33 1023.48 1023.58 1023.63 1023.60 1023.49
1013.44 1014.16 1014.90 1015.57 1016.11 1016.47 1016.70 1016.82 1016.91 1017.03 1017.23 1017.52 1017.91 1018.37 1018.85 1019.31 1019.73 1020.08 1020.37 1020.60 1020.79 1020.98 1021.17 1021.37 1021.59 1021.81 1022.03 1022.21 1022.37 1022.50 1022.60 1022.69 1022.78 1022.88 1022.99 1023.12 1023.27 1023.42 1023.56 1023.68 1023.77 1023.83 1023.83
1013.16 1013.83 1014.55 1015.21 1015.75 1016.16 1016.44 1016.62 1016.77 1016.94 1017.16 1017.46 1017.84 1018.27 1018.73 1019.17 1019.56 1019.90 1020.18 1020.41 1020.61 1020.80 1021.00 1021.21 1021.45 1021.69 1021.94 1022.17 1022.37 1022.55 1022.69 1022.81 1022.91 1023.00 1023.09 1023.19 1023.30 1023.43 1023.57 1023.71 1023.85 1023.98 1024.08
1012.88 1013.49 1014.14 1014.77 1015.31 1015.74 1016.06 1016.32 1016.54 1016.77 1017.05 1017.39 1017.78 1018.21 1018.66 1019.09 1019.47 1019.80 1020.07 1020.29 1020.49 1020.67 1020.87 1021.08 1021.31 1021.56 1021.82 1022.08 1022.31 1022.52 1022.70 1022.84 1022.95 1023.05 1023.13 1023.21 1023.30 1023.41 1023.54 1023.70 1023.87 1024.06 1024.24
1012.63 1013.15 1013.72 1014.28 1014.79 1015.23 1015.60 1015.92 1016.22 1016.53 1016.88 1017.28 1017.71 1018.17 1018.62 1019.05 1019.43 1019.75 1020.01 1020.23 1020.42 1020.60 1020.78 1020.98 1021.20 1021.44 1021.69 1021.95 1022.20 1022.43 1022.63 1022.80 1022.93 1023.03 1023.12 1023.19 1023.27 1023.37 1023.49 1023.65 1023.84 1024.06 1024.29
1012.41 1012.82 1013.29 1013.78 1014.24 1014.67 1015.06 1015.44 1015.82 1016.22 1016.65 1017.11 1017.59 1018.08 1018.55 1018.99 1019.37 1019.70 1019.96 1020.18 1020.37 1020.53 1020.70 1020.88 1021.08 1021.30 1021.53 1021.78 1022.02 1022.26 1022.47 1022.66 1022.81 1022.94 1023.04 1023.12 1023.20 1023.29 1023.41 1023.56 1023.74 1023.96 1024.20
1012.26 1012.55 1012.91 1013.29 1013.69 1014.09 1014.50 1014.91 1015.35 1015.82 1016.31 1016.83 1017.36 1017.88 1018.38 1018.83 1019.23 1019.56 1019.84 1020.06 1020.25 1020.42 1020.57 1020.73 1020.91 1021.10 1021.30 1021.52 1021.75 1021.98 1022.19 1022.40 1022.58 1022.73 1022.86 1022.96 1023.06 1023.15 1023.26 1023.39 1023.55 1023.75 1023.96
1012.19 1012.36 1012.58 1012.86 1013.17 1013.52 1013.91 1014.34 1014.81 1015.32 1015.86 1016.41 1016.97 1017.52 1018.03 1018.50 1018.91 1019.26 1019.55 1019.80 1020.00 1020.18 1020.33 1020.49 1020.64 1020.80 1020.97 1021.16 1021.36 1021.57 1021.78 1021.99 1022.19 1022.38 1022.54 1022.68 1022.80 1022.91 1023.01 1023.12 1023.25 1023.41 1023.58
1012.20 1012.24 1012.34 1012.50 1012.71 1012.99 1013.33 1013.73 1014.20 1014.71 1015.26 1015.82 1016.39 1016.93 1017.45 1017.92 1018.35 1018.72 1019.04 1019.32 1019.56 1019.76 1019.93 1020.09 1020.23 1020.37 1020.51 1020.66 1020.83 1021.02 1021.22 1021.43 1021.65 1021.86 1022.06 1022.24 1022.39 1022.52 1022.63 1022.73 1022.83 1022.94 1023.07
1012.32 1012.22 1012.19 1012.22 1012.32 1012.50 1012.77 1013.12 1013.54 1014.02 1014.53 1015.07 1015.61 1016.14 1016.64 1017.11 1017.55 1017.94 1018.30 1018.61 1018.90 1019.14 1019.35 1019.52 1019.67 1019.80 1019.92 1020.04 1020.18 1020.34 1020.52 1020.73 1020.96 1021.19 1021.42 1021.63 1021.82 1021.97 1022.10 1022.20 1022.29 1022.38 1022.47
1012.51 1012.30 1012.13 1012.04 1012.02 1012.10 1012.27 1012.53 1012.88 1013.28 1013.73 1014.21 1014.70 1015.18 1015.65 1016.11 1016.54 1016.95 1017.34 1017.70 1018.03 1018.33 1018.58 1018.79 1018.96 1019.09 1019.21 1019.31 1019.43 1019.56 1019.73 1019.92 1020.15 1020.39 1020.64 1020.88 1021.10 1021.29 1021.44 1021.56 1021.66 1021.74 1021.81
1012.79 1012.46 1012.18 1011.97 1011.84 1011.80 1011.87 1012.02 1012.27 1012.58 1012.94 1013.33 1013.74 1014.15 1014.57 1014.99 1015.41 1015.83 1016.23 1016.63 1017.00 1017.35 1017.65 1017.90 1018.10 1018.26 1018.38 1018.49 1018.59 1018.71 1018.86 1019.04 1019.26 1019.50 1019.77 1020.03 1020.27 1020.49 1020.68 1020.82 1020.94 1021.03 1021.11
1013.14 1012.72 1012.35 1012.03 1011.80 1011.65 1011.60 1011.65 1011.78 1011.98 1012.23 1012.51 1012.82 1013.16 1013.50 1013.87 1014.25 1014.64 1015.05 1015.46 1015.86 1016.24 1016.58 1016.87 1017.11 1017.30 1017.44 1017.56 1017.67 1017.79 1017.93 1018.10 1018.32 1018.56 1018.83 1019.10 1019.37 1019.61 1019.82 1020.00 1020.15 1020.27 1020.37
1013.56 1013.09 1012.64 1012.25 1011.92 1011.68 1011.53 1011.46 1011.47 1011.55 1011.68 1011.85 1012.05 1012.28 1012.54 1012.82 1013.13 1013.48 1013.85 1014.24 1014.63 1015.02 1015.38 1015.70 1015.97 1016.19 1016.37 1016.52 1016.65 1016.79 1016.94 1017.12 1017.33 1017.57 1017.84 1018.12 1018.40 1018.66 1018.90 1019.10 1019.28 1019.43 1019.57
1014.06 1013.55 1013.06 1012.61 1012.22 1011.89 1011.64 1011.47 1011.37 1011.33 1011.34 1011.39 1011.48 1011.59 1011.73 1011.91 1012.13 1012.39 1012.68 1013.01 1013.36 1013.71 1014.05 1014.37 1014.66 1014.91 1015.12 1015.31 1015.48 1015.65 1015.83 1016.04 1016.26 1016.52 1016.79 1017.07 1017.36 1017.63 1017.88 1018.11 1018.31 1018.50 1018.66
1014.63 1014.12 1013.60 1013.12 1012.67 1012.28 1011.95 1011.69 1011.48 1011.33 1011.23 1011.16 1011.12 1011.11 1011.12 1011.17 1011.26 1011.40 1011.58 1011.79 1012.04 1012.32 1012.61 1012.89 1013.17 1013.43 1013.67 1013.90 1014.12 1014.35 1014.57 1014.82 1015.07 1015.35 1015.63 1015.92 1016.21 1016.49 1016.75 1016.99 1017.22 1017.42 1017.60
1015.26 1014.75 1014.24 1013.73 1013.25 1012.80 1012.41 1012.06 1011.77 1011.52 1011.30 1011.12 1010.96 1010.82 1010.70 1010.60 1010.54 1010.52 1010.54 1010.61 1010.72 1010.87 1011.06 1011.28 1011.51 1011.76 1012.01 1012.28 1012.54 1012.82 1013.10 1013.40 1013.70 1014.00 1014.31 1014.61 1014.91 1015.19 1015.46 1015.71 1015.95 1016.16 1016.37
Thickness
5740 5744 5746 5746 5745 5744 5743 5743 5741 5740 5740 5737 5735 5733 5731 5731 5731 5731 5730 5729 5728 5726 5725 5723 5721 5719 5717 5715 5715 5713 5712 5710 5711 5709 5706 5708 5710 5710 5710 5710 5710 5710 5711
5736 5739 5742 5744 5743 5742 5741 5741 5740 5739 5739 5738 5736 5733 5731 5729 5728 5728 5728 5726 5725 5724 5723 5720 5718 5717 5715 5713 5712 5710 5708 5706 5707 5703 5698 5695 5698 5703 5705 5705 5705 5705 5706
5735 5737 5740 5741 5741 5740 5740 5741 5739 5739 5738 5738 5735 5732 5729 5727 5725 5724 5724 5724 5723 5722 5720 5718 5716 5715 5713 5710 5709 5708 5705 5702 5702 5701 5696 5689 5686 5689 5696 5698 5699 5700 5701
5739 5739 5739 5739 5740 5740 5741 5740 5739 5738 5737 5736 5734 5730 5725 5721 5721 5721 5721 5721 5720 5719 5718 5716 5714 5712 5711 5709 5708 5706 5704 5702 5698 5698 5696 5693 5690 5685 5684 5690 5693 5695 5695
5741 5740 5741 5741 5742 5741 5740 5739 5738 5736 5735 5734 5732 5728 5724 5722 5721 5720 5719 5718 5718 5717 5715 5714 5712 5710 5708 5707 5705 5704 5702 5699 5696 5693 5692 5690 5687 5685 5681 5679 5682 5687 5689
5742 5742 5742 5742 5740 5740 5739 5738 5736 5734 5733 5732 5730 5727 5724 5721 5719 5717 5715 5714 5714 5713 5713 5712 5710 5708 5706 5704 5702 5701 5699 5696 5694 5691 5689 5686 5683 5680 5678 5675 5675 5676 5681
5742 5741 5739 5738 5738 5737 5737 5736 5734 5731 5731 5730 5728 5726 5723 5720 5718 5715 5713 5712 5710 5709 5709 5709 5707 5705 5703 5702 5700 5698 5695 5693 5691 5688 5685 5683 5681 5679 5675 5672 5670 5670 5674
5744 5743 5742 5740 5739 5737 5736 5734 5732 5729 5728 5727 5726 5724 5722 5719 5717 5715 5713 5710 5709 5708 5707 5706 5704 5702 5701 5699 5697 5694 5692 5690 5687 5685 5682 5679 5677 5675 5672 5668 5665 5663 5664
5745 5744 5742 5741 5739 5737 5735 5734 5731 5728 5727 5725 5723 5721 5720 5718 5715 5714 5712 5709 5708 5707 5705 5703 5701 5699 5697 5695 5693 5690 5688 5685 5683 5680 5678 5675 5673 5671 5668 5665 5663 5659 5656
5745 5744 5742 5741 5740 5738 5736 5734 5731 5728 5726 5723 5721 5720 5717 5716 5714 5712 5709 5707 5706 5704 5702 5700 5697 5695 5693 5691 5689 5686 5684 5681 5678 5676 5674 5671 5668 5666 5664 5662 5660 5658 5655
5745 5743 5742 5741 5739 5736 5734 5731 5728 5726 5723 5721 5719 5717 5714 5713 5711 5709 5707 5705 5703 5701 5698 5696 5694 5691 5689 5687 5684 5682 5679 5676 5674 5672 5669 5666 5664 5661 5659 5658 5656 5654 5652
5747 5745 5742 5739 5736 5733 5731 5729 5727 5724 5722 5720 5717 5714 5712 5710 5707 5705 5703 5702 5699 5697 5695 5692 5689 5687 5684 5682 5680 5677 5674 5671 5668 5666 5664 5661 5660 5656 5654 5652 5650 5649 5648
5743 5741 5738 5736 5734 5732 5730 5728 5725 5723 5720 5717 5714 5711 5708 5706 5704 5702 5700 5698 5695 5693 5690 5688 5685 5682 5680 5678 5675 5672 5670 5667 5664 5661 5659 5656 5654 5651 5649 5647 5645 5644 5645
5741 5738 5735 5734 5733 5731 5729 5726 5723 5721 5718 5715 5711 5708 5705 5703 5701 5699 5696 5694 5691 5688 5685 5683 5680 5678 5675 5673 5670 5668 5665 5662 5660 5657 5654 5652 5649 5647 5645 5643 5641 5640 5639
5737 5736 5734 5732 5730 5728 5726 5724 5722 5719 5717 5712 5708 5706 5703 5701 5698 5695 5692 5690 5687 5684 5681 5678 5675 5673 5671 5669 5666 5663 5660 5657 5654 5652 5649 5647 5646 5645 5642 5640 5637 5636 5633
5736 5736 5734 5731 5729 5727 5725 5722 5720 5717 5714 5710 5706 5703 5700 5696 5693 5691 5688 5684 5681 5678 5675 5673 5670 5667 5666 5664 5662 5659 5655 5651 5648 5646 5643 5642 5640 5639 5638 5636 5634 5632 5629
5736 5735 5733 5732 5730 5728 5726 5722 5719 5715 5711 5707 5704 5700 5696 5692 5689 5687 5682 5679 5676 5673 5670 5667 5664 5661 5660 5659 5657 5654 5650 5646 5643 5640 5637 5635 5634 5631 5630 5629 5628 5626 5625
5736 5735 5734 5732 5730 5728 5725 5722 5717 5712 5708 5704 5700 5697 5693 5689 5685 5681 5677 5674 5671 5668 5664 5661 5659 5656 5654 5653 5651 5648 5644 5640 5636 5633 5630 5627 5625 5624 5622 5621 5619 5618 5617
5737 5736 5735 5732 5728 5725 5722 5717 5712 5708 5704 5701 5698 5695 5691 5686 5681 5677 5673 5670 5666 5663 5659 5657 5653 5650 5648 5647 5644 5641 5636 5632 5629 5627 5624 5621 5618 5617 5616 5613 5610 5609 5609
5735 5733 5731 5727 5724 5721 5718 5713 5708 5703 5701 5699 5697 5693 5688 5684 5679 5675 5670 5666 5662 5658 5655 5651 5648 5645 5642 5640 5638 5635 5629 5625 5622 5620 5617 5615 5613 5611 5609 5605 5602 5600 5600
5729 5728 5725 5721 5719 5717 5713 5708 5705 5702 5701 5698 5693 5688 5684 5680 5676 5671 5666 5662 5657 5653 5649 5645 5642 5639 5636 5634 5631 5628 5623 5618 5615 5612 5609 5607 5606 5604 5601 5599 5595 5594 5593
5720 5720 5717 5714 5713 5711 5708 5703 5700 5700 5697 5693 5688 5684 5680 5676 5672 5666 5661 5656 5651 5646 5642 5638 5635 5632 5630 5627 5624 5621 5618 5614 5609 5606 5603 5600 5599 5596 5594 5591 5589 5587 5585
5711 5711 5709 5706 5704 5703 5702 5697 5696 5694 5690 5686 5681 5678 5674 5670 5666 5661 5655 5650 5645 5640 5636 5632 5628 5626 5623 5620 5618 5615 5612 5608 5603 5600 5597 5594 5591 5588 5585 5583 5581 5578 5575
5702 5701 5699 5696 5694 5694 5693 5692 5690 5687 5683 5678 5674 5671 5666 5662 5659 5655 5650 5645 5640 5635 5631 5626 5623 5620 5616 5613 5610 5607 5603 5600 5596 5592 5589 5586 5582 5579 5576 5573 5571 5568 5565
5692 5691 5690 5687 5685 5685 5684 5683 5681 5679 5674 5670 5667 5663 5659 5655 5651 5647 5644 5640 5637 5633 5628 5623 5619 5613 5610 5610 5606 5600 5596 5592 5588 5584 5578 5574 5570 5567 5565 5562 5560 5557 5555
5682 5680 5679 5677 5676 5675 5674 5673 5672 5670 5666 5661 5657 5653 5649 5646 5642 5638 5635 5633 5630 5628 5624 5620 5614 5610 5607 5604 5599 5594 5590 5586 5581 5574 5568 5564 5561 5557 5555 5552 5550 5547 5544